Wind_Speed
38 37 30 30 32 33 32 31 30 30 33 33 33 34 34 37 35 31 31 30 28 28 29 29 30 30 29 28 27 28 28 29 29 29 30 28 27 28 30 32 34 35 34 33
41 38 35 35 34 35 34 35 32 33 36 40 38 39 40 41 38 35 34 30 28 29 29 31 33 34 33 31 29 30 31 32 32 31 30 30 31 31 32 33 34 35 36 35
43 41 39 38 37 38 36 36 35 38 39 42 44 47 42 35 33 31 31 29 27 27 30 33 35 35 35 34 33 32 32 34 34 33 32 33 34 34 35 36 37 37 38 39
48 44 41 40 41 40 40 37 40 39 42 47 48 54 39 32 29 29 25 28 28 29 32 36 37 37 37 37 35 35 35 34 34 34 34 34 34 35 36 36 36 38 38 39
50 47 45 45 42 42 41 39 40 42 48 51 50 53 45 32 25 22 26 30 29 30 32 34 36 38 38 37 38 38 37 36 34 35 35 35 35 36 35 35 35 35 37 40
52 52 48 46 44 43 43 42 43 47 51 61 51 53 54 38 28 25 26 30 33 35 34 35 37 38 38 38 38 37 36 36 35 36 36 36 36 35 35 34 35 37 41 43
53 52 50 48 46 46 46 45 47 53 57 63 55 55 50 43 34 33 31 32 33 35 37 37 39 39 39 38 38 37 37 36 36 36 36 36 37 35 34 36 38 41 44 46
57 57 51 49 48 45 41 41 47 52 57 56 52 44 33 31 26 27 28 27 30 35 37 36 37 38 38 38 37 36 36 35 35 35 36 37 35 35 37 40 42 43 45 48
62 60 57 55 52 48 52 59 54 54 57 56 48 42 37 37 35 31 26 27 29 32 35 35 36 36 35 35 36 36 36 36 36 37 38 38 36 37 39 41 43 45 48 52
51 57 62 64 62 58 54 47 46 49 54 55 53 49 46 42 40 40 34 31 30 32 31 33 36 38 38 37 37 37 39 40 40 40 40 40 40 40 42 44 47 51 54 57
51 52 55 51 52 50 47 46 48 51 53 54 53 47 48 45 39 37 37 32 26 26 29 33 37 39 40 40 40 39 38 39 41 43 44 44 42 44 46 49 53 56 58 60
47 52 55 54 51 51 50 51 51 52 50 50 51 45 46 46 38 36 37 37 37 32 32 34 36 39 38 37 38 39 41 42 43 43 43 42 45 48 50 54 57 58 60 62
41 47 50 55 58 58 60 58 51 48 48 51 54 47 49 44 43 39 37 39 41 40 38 37 39 41 41 41 41 43 45 47 48 48 47 47 49 53 55 57 59 61 63 65
46 48 49 51 51 53 53 52 49 50 54 55 53 48 45 43 42 40 38 42 43 40 38 39 39 40 45 46 45 46 49 50 50 50 49 51 53 55 59 61 63 64 66 67
49 49 47 47 45 47 49 51 53 57 54 56 48 52 45 43 46 45 44 44 45 46 44 40 41 39 44 47 49 49 50 51 52 54 56 56 57 58 59 61 63 65 68 68
48 48 45 46 45 50 52 51 55 57 56 58 57 55 49 48 48 46 46 48 50 51 50 46 45 46 44 45 48 52 54 55 57 58 58 59 58 58 61 62 62 66 67 69
54 50 50 50 43 48 52 50 54 54 52 51 55 48 47 49 47 47 44 47 52 53 52 49 46 45 46 47 49 50 51 54 56 58 60 60 60 61 62 61 62 67 68 71
61 55 53 54 56 60 50 45 47 51 52 53 52 49 49 48 49 45 47 50 47 48 47 49 49 48 49 50 50 52 54 56 59 61 62 63 60 59 57 64 66 68 68 71
66 57 54 54 60 63 57 51 51 51 51 51 54 52 51 50 55 55 51 48 47 52 52 53 52 53 54 56 56 57 59 61 63 63 62 60 55 61 65 66 67 69 69 71
62 60 58 60 62 63 57 57 57 60 61 49 53 51 52 55 61 54 52 56 56 54 55 54 55 55 57 58 58 59 60 61 59 59 60 53 57 62 65 69 70 73 71 71
67 61 67 64 61 60 54 58 61 66 57 57 58 54 54 59 59 60 60 60 59 59 59 57 56 56 58 57 55 56 58 59 58 57 58 60 61 68 72 76 74 69 74 76
61 60 62 66 65 65 54 59 64 60 59 59 62 61 59 59 60 57 58 58 58 60 61 59 58 56 56 57 57 56 56 56 57 59 61 65 70 73 72 71 73 73 75 77
59 61 56 59 59 61 57 57 59 57 55 54 52 55 60 59 57 56 55 54 54 54 54 55 56 56 56 54 53 55 57 57 58 61 64 67 69 69 70 70 73 75 76 76
63 51 50 53 53 52 54 56 53 49 47 50 52 52 52 53 53 53 53 53 53 53 52 51 50 51 52 53 54 56 56 57 60 62 64 66 68 70 70 72 73 72 72 72
74 75 54 45 40 41 40 42 46 48 48 49 51 51 52 53 54 55 53 49 47 47 48 49 50 49 49 50 51 52 56 59 62 64 65 67 68 70 72 71 70 70 71 73
66 64 73 73 61 53 48 48 50 50 49 49 49 50 51 50 50 50 51 51 50 49 49 48 48 49 51 54 57 59 61 63 65 66 66 69 72 72 71 69 70 72 74 75
Wind_Direction
245 249 253 255 256 262 267 272 276 281 281 279 282 284 286 282 279 280 274 271 270 266 262 264 264 263 267 270 269 272 273 272 272 273 274 275 277 279 279 278 277 273 269 268
250 253 254 257 260 263 267 273 278 278 280 282 284 283 282 283 282 275 272 273 267 261 260 262 262 263 266 269 269 272 271 269 267 268 269 272 277 280 280 279 275 269 265 267
253 255 255 259 262 265 268 272 277 277 280 284 287 282 284 282 280 274 270 270 264 260 259 261 263 263 265 267 268 272 272 267 265 265 266 270 274 277 279 277 274 272 269 269
254 257 262 261 262 265 268 272 274 278 281 285 285 285 279 283 282 278 272 263 260 262 263 264 265 266 265 265 269 270 270 268 264 263 265 269 273 275 274 271 271 271 269 270
256 258 260 261 264 265 271 271 274 276 278 279 280 284 284 279 278 272 264 265 268 265 264 266 268 268 268 267 266 267 268 267 263 263 265 268 271 271 270 269 269 269 270 274
257 260 262 264 268 270 270 273 275 274 276 276 282 283 278 282 281 270 265 264 264 265 265 266 267 267 268 266 264 264 263 262 262 262 264 267 269 269 268 269 271 274 275 279
261 263 265 266 268 271 272 273 273 272 271 278 281 275 276 284 276 273 269 265 266 271 270 269 266 267 264 262 262 261 260 259 259 261 263 265 266 268 270 270 273 275 277 281
261 263 266 270 269 271 267 263 265 273 278 279 277 269 279 286 281 273 268 266 268 272 270 271 262 263 262 260 258 258 258 257 257 260 262 264 266 268 268 270 274 278 281 285
259 260 262 261 261 266 268 267 267 267 266 271 273 271 275 276 284 278 271 272 275 267 267 265 263 263 261 258 255 254 252 254 257 261 260 263 264 265 269 274 278 282 285 289
256 257 255 257 260 260 258 263 260 262 266 268 268 271 275 277 277 281 281 284 278 263 265 260 260 261 261 259 256 255 258 259 257 258 262 263 263 270 274 277 281 284 287 288
253 252 255 254 254 258 259 259 258 262 261 260 266 273 279 275 282 287 287 286 283 263 256 250 255 260 259 260 260 260 256 254 258 261 263 265 269 272 276 280 282 283 285 287
252 254 254 258 256 254 251 252 252 253 263 265 268 264 275 277 287 293 289 283 277 267 259 260 258 255 256 255 255 255 254 256 257 260 263 265 270 275 279 281 282 283 285 288
251 251 253 254 256 255 255 255 257 260 260 263 264 265 269 276 277 284 281 276 277 277 271 256 258 259 255 250 250 251 253 254 258 262 264 267 272 277 280 282 284 288 290 290
254 252 251 253 257 259 258 256 256 259 257 257 258 266 274 278 276 277 284 278 276 276 272 268 263 260 258 253 248 250 254 256 258 261 265 271 275 278 281 285 288 289 289 290
251 251 253 251 253 257 258 255 253 253 260 258 263 262 264 266 277 282 277 272 272 270 268 264 263 259 257 256 254 255 257 260 262 266 271 274 277 280 282 284 285 286 286 288
257 255 257 253 249 250 251 252 256 256 255 257 265 267 268 277 272 269 272 269 269 268 266 266 265 264 261 262 258 259 261 264 267 271 276 277 280 281 281 282 284 284 287 287
252 251 256 256 254 255 255 253 255 258 259 263 261 265 268 263 267 268 265 264 265 263 266 269 268 265 263 263 264 265 266 268 271 274 276 276 279 279 282 284 283 285 285 287
256 256 251 253 255 258 252 248 254 258 255 256 260 262 266 264 260 265 268 268 272 266 264 264 263 262 262 264 266 268 270 272 273 275 274 275 275 277 284 283 281 282 283 285
255 256 257 260 259 261 254 251 254 263 257 258 262 261 264 269 265 264 272 275 271 263 263 263 263 266 267 268 270 272 273 274 276 276 274 271 277 278 277 279 278 280 282 285
247 249 257 258 257 257 265 260 263 268 264 255 262 261 264 261 261 261 273 269 269 269 270 270 270 270 270 271 272 274 274 275 273 270 272 270 273 277 276 273 275 279 286 289
250 252 256 258 255 259 257 258 261 262 269 264 265 263 263 262 266 262 268 270 270 270 271 271 271 269 270 273 275 276 275 274 272 269 267 267 267 267 267 269 277 285 288 289
248 251 250 253 259 262 259 259 261 267 266 264 263 264 266 268 268 266 265 266 266 267 269 272 273 273 273 274 275 273 271 270 269 271 270 266 264 266 273 279 284 287 288 287
245 247 252 256 265 265 260 260 261 262 262 263 264 266 266 267 267 269 270 269 269 270 270 270 270 272 273 271 269 269 270 270 271 268 266 268 272 276 280 284 285 285 284 285
245 244 242 248 253 258 259 259 259 256 257 257 259 262 267 267 269 273 273 273 272 272 270 270 268 267 268 268 269 270 270 271 270 270 270 272 277 282 283 284 283 282 284 286
250 248 248 249 246 251 250 254 257 256 256 256 257 259 259 264 266 269 271 272 272 271 271 270 270 271 270 270 268 266 266 266 268 274 278 280 281 281 281 282 284 286 287 288
255 257 256 253 260 262 256 255 252 253 255 258 260 262 264 265 266 270 272 273 273 271 269 269 269 268 266 264 265 269 273 274 276 278 279 280 280 281 283 285 286 287 288 289
Height
5829 5832 5838 5837 5837 5838 5839 5840 5841 5841 5838 5838 5838 5839 5839 5837 5839 5840 5838 5837 5837 5837 5837 5837 5837 5837 5838 5838 5838 5838 5837 5837 5837 5836 5837 5837 5837 5836 5836 5836 5835 5834 5833 5832
5823 5827 5829 5829 5831 5831 5832 5832 5834 5833 5831 5827 5830 5830 5831 5829 5830 5831 5830 5831 5830 5829 5830 5830 5829 5830 5831 5832 5832 5831 5830 5829 5829 5829 5829 5829 5829 5828 5828 5828 5827 5827 5826 5824
5814 5818 5821 5822 5824 5824 5825 5825 5825 5823 5821 5819 5818 5815 5821 5823 5821 5821 5822 5823 5822 5822 5821 5821 5821 5823 5824 5824 5824 5824 5823 5822 5822 5822 5822 5822 5822 5821 5821 5820 5819 5819 5818 5817
5804 5809 5812 5814 5815 5815 5816 5817 5815 5814 5811 5810 5810 5798 5812 5815 5814 5814 5815 5813 5814 5815 5814 5813 5813 5814 5814 5815 5816 5815 5814 5814 5814 5814 5814 5814 5814 5813 5812 5811 5811 5810 5809 5808
5797 5799 5801 5803 5808 5806 5809 5808 5806 5804 5802 5799 5801 5794 5796 5807 5809 5809 5807 5805 5806 5806 5805 5805 5804 5804 5805 5806 5805 5805 5805 5805 5805 5805 5805 5805 5805 5804 5803 5802 5801 5801 5800 5798
5784 5787 5792 5796 5797 5797 5799 5798 5797 5795 5791 5783 5796 5790 5776 5795 5800 5801 5800 5799 5797 5796 5797 5797 5796 5795 5795 5795 5795 5795 5795 5796 5796 5796 5796 5796 5795 5794 5794 5793 5792 5791 5789 5787
5774 5777 5780 5784 5786 5787 5788 5789 5786 5782 5777 5774 5782 5777 5772 5780 5788 5789 5789 5789 5788 5787 5787 5787 5786 5786 5784 5785 5785 5785 5786 5787 5787 5787 5787 5786 5785 5785 5785 5784 5782 5780 5778 5775
5760 5763 5770 5773 5775 5775 5775 5777 5775 5769 5770 5767 5766 5762 5769 5771 5774 5777 5779 5780 5779 5777 5776 5775 5775 5774 5774 5775 5776 5776 5777 5777 5777 5777 5777 5776 5776 5775 5774 5772 5771 5769 5766 5763
5745 5748 5755 5761 5759 5762 5763 5761 5768 5763 5759 5754 5755 5757 5760 5762 5763 5766 5770 5770 5769 5767 5765 5764 5764 5764 5765 5766 5766 5766 5767 5767 5768 5767 5766 5765 5765 5763 5762 5761 5759 5756 5753 5750
5730 5733 5739 5741 5745 5746 5747 5753 5752 5751 5747 5745 5742 5745 5748 5752 5752 5753 5758 5760 5759 5757 5756 5755 5754 5754 5755 5755 5756 5757 5758 5758 5757 5757 5756 5755 5754 5753 5751 5749 5746 5743 5740 5737
5718 5719 5723 5727 5730 5733 5737 5737 5738 5739 5737 5734 5733 5735 5736 5738 5744 5746 5745 5746 5747 5747 5746 5744 5744 5745 5746 5746 5746 5747 5747 5747 5747 5746 5744 5744 5743 5741 5738 5736 5733 5730 5727 5723
5705 5702 5708 5711 5716 5718 5720 5721 5722 5724 5728 5730 5727 5722 5728 5728 5734 5735 5734 5734 5734 5736 5738 5736 5734 5734 5735 5736 5736 5736 5736 5735 5735 5734 5733 5732 5731 5728 5726 5723 5719 5716 5712 5707
5690 5689 5693 5697 5701 5701 5701 5708 5714 5715 5716 5716 5715 5713 5715 5723 5724 5724 5723 5721 5721 5722 5724 5726 5724 5724 5724 5724 5724 5724 5724 5724 5723 5723 5722 5720 5718 5715 5712 5708 5705 5701 5696 5691
5672 5673 5680 5684 5689 5689 5692 5697 5701 5701 5700 5701 5703 5707 5709 5709 5712 5713 5714 5711 5710 5711 5711 5710 5712 5713 5713 5712 5712 5712 5712 5712 5711 5710 5709 5707 5704 5701 5697 5693 5689 5685 5679 5675
5656 5660 5667 5673 5675 5675 5675 5679 5682 5680 5687 5682 5697 5692 5703 5703 5699 5700 5698 5698 5698 5698 5698 5699 5698 5699 5699 5700 5701 5701 5700 5699 5697 5696 5694 5693 5690 5687 5683 5678 5673 5667 5662 5658
5644 5649 5650 5654 5661 5659 5660 5664 5667 5666 5670 5667 5677 5679 5687 5688 5685 5686 5687 5685 5684 5683 5683 5685 5686 5687 5688 5687 5687 5687 5686 5685 5684 5683 5681 5678 5674 5671 5666 5661 5656 5650 5646 5642
5632 5635 5636 5637 5647 5642 5637 5656 5652 5656 5659 5660 5658 5671 5670 5669 5670 5668 5670 5670 5670 5669 5670 5672 5672 5672 5672 5672 5672 5672 5672 5670 5669 5667 5665 5661 5657 5653 5649 5645 5640 5636 5630 5625
5617 5621 5622 5624 5624 5616 5636 5641 5639 5637 5642 5641 5644 5656 5653 5652 5653 5656 5656 5655 5657 5659 5658 5657 5657 5656 5656 5656 5657 5657 5657 5655 5653 5651 5648 5645 5641 5638 5634 5631 5626 5620 5615 5609
5603 5606 5605 5604 5606 5607 5619 5629 5626 5623 5630 5634 5629 5637 5640 5639 5635 5644 5641 5643 5645 5643 5643 5644 5645 5645 5645 5644 5643 5642 5641 5639 5637 5636 5633 5628 5625 5624 5620 5616 5610 5605 5598 5593
5592 5592 5592 5592 5589 5588 5610 5610 5610 5606 5604 5627 5619 5624 5625 5620 5620 5636 5622 5624 5625 5627 5629 5630 5630 5630 5630 5629 5627 5626 5625 5624 5622 5619 5617 5614 5610 5608 5604 5599 5593 5587 5581 5575
5576 5574 5572 5579 5574 5576 5592 5593 5592 5587 5603 5602 5600 5606 5606 5607 5608 5614 5611 5609 5610 5611 5612 5613 5613 5613 5612 5611 5610 5609 5608 5607 5605 5602 5600 5597 5595 5590 5585 5580 5574 5569 5563 5557
5556 5559 5561 5564 5561 5561 5578 5577 5577 5580 5580 5581 5583 5584 5587 5588 5589 5593 5595 5594 5594 5595 5596 5596 5596 5596 5595 5595 5594 5592 5591 5589 5587 5586 5584 5580 5576 5572 5567 5563 5557 5551 5544 5538
5541 5543 5545 5549 5547 5554 5559 5558 5560 5562 5564 5564 5565 5567 5568 5571 5573 5575 5577 5579 5579 5579 5580 5580 5580 5580 5579 5579 5578 5577 5576 5574 5572 5570 5566 5562 5558 5554 5549 5544 5538 5532 5525 5519
5526 5528 5528 5531 5536 5538 5541 5543 5545 5547 5549 5550 5551 5554 5556 5557 5558 5558 5559 5561 5561 5561 5562 5562 5562 5562 5562 5562 5561 5561 5559 5557 5555 5552 5548 5544 5540 5535 5529 5524 5518 5512 5505 5499
5510 5514 5517 5519 5523 5525 5526 5528 5529 5533 5534 5535 5537 5539 5541 5543 5544 5544 5544 5545 5545 5546 5545 5545 5546 5545 5545 5544 5544 5543 5542 5540 5537 5533 5529 5525 5520 5515 5510 5504 5498 5492 5485 5479
5495 5500 5503 5507 5509 5508 5512 5513 5515 5518 5521 5523 5523 5525 5527 5528 5529 5530 5531 5531 5530 5530 5531 5531 5530 5530 5529 5528 5527 5526 5524 5521 5518 5514 5510 5506 5501 5495 5490 5484 5478 5472 5466 5459